Regional Weather Roundup
Issued by NWS

Home | Current Version | Previous Version | Graphics & Text | Print | Product List | Glossary On
Versions: 1 2 3 4 5 6 7 8 9 10 11 12 13 14 15 16 17 18 19 20 21 22 23 24 25 26 27 28 29 30 31 32 33 34 35 36 37 38 39 40 41 42 43 44 45 46 47 48 49 50
000
ASUS43 KFSD 140202
RWRSD

WEATHER ROUNDUP FOR SOUTH DAKOTA
NATIONAL WEATHER SERVICE SIOUX FALLS SD
900 PM CDT SUN JUL 13 2014

NOTE: "FAIR" INDICATES FEW OR NO CLOUDS BELOW 12,000 FEET WITH NO
SIGNIFICANT WEATHER AND/OR OBSTRUCTIONS TO VISIBILITY.


SDZ001>005-009-010-012>017-140300-
NORTHWEST AND NORTH CENTRAL SOUTH DAKOTA

CITY           SKY/WX    TMP DP  RH WIND       PRES   REMARKS
BUFFALO          N/A     71  49  45 N10       30.08R
FAITH            N/A     67  49  52 N9        30.10R
MOBRIDGE         N/A     65  51  60 MISG      30.02S
$$

SDZ012>016-024>037-041>051-057-063-072>074-140300-
SOUTHWEST AND SOUTH CENTRAL SOUTH DAKOTA

CITY           SKY/WX    TMP DP  RH WIND       PRES   REMARKS
RAPID CTY ARPT CLEAR     73  53  49 N8        30.14R
PIERRE         CLEAR     71  47  42 N12       30.03R
CUSTER         CLEAR     68  49  50 NE6       30.27R
ELLSWORTH AFB  CLEAR     75  53  45 N12       30.14R
PHILIP         CLEAR     75  55  49 N9        30.07R
PINE RIDGE     CLEAR     76  59  55 NE3       30.12R
WINNER         MOCLDY    76  56  49 N8        30.04R
$$

SDZ004>011-016>023-039-040-140300-
NORTHEAST SOUTH DAKOTA

CITY           SKY/WX    TMP DP  RH WIND       PRES   REMARKS
ABERDEEN       CLEAR     67  41  38 NW13      30.00R
WATERTOWN      CLEAR     67  46  47 NW10      29.98S
SISSETON         N/A     67  47  48 NW8       29.95R
$$

SDZ017-020-022-023-036>040-048>070-140300-
SOUTHEAST SOUTH DAKOTA

CITY           SKY/WX    TMP DP  RH WIND       PRES   REMARKS
SIOUX FALLS    CLEAR     72  55  55 NW10      29.98R
HURON          CLEAR     66  50  56 NW8       29.99S
CHAMBERLAIN    CLEAR     74  55  50 N7        30.03R
MITCHELL       CLEAR     72  52  49 N8        30.00R
YANKTON        CLEAR     73  59  60 NW8       29.98S
$$

ABBREVIATIONS USED IN REMARKS
   TC - TEMPERATURE IN CELSIUS
  WCI - WIND CHILL INDEX
   HX - HEAT INDEX
  VSB - VISIBILITY



USA.gov is the U.S. government's official web portal to all federal, state and local government web resources and services.